SCP
0 0 0 0 0 0 0 0 0 0 0 0 0 0 0 0 0 0 0 -0 -0 -0 -0 -0 -0 -0 -0 -0 -0 -0 -0 0 0 0 0 0 0 0 0 0 0 0 0 0 0 0 0 0 0
0 0 0 0 0 0 0 0 0 0 0 0 0 0 0 0 0 0 0 -0 -0 -0 -0 -0 -0 -0 -0 -0 -0 -0 0 0 0 0 0 0 0 0 0 0 0 0 0 0 0 0 0 0 0
0 0 0 0 0 0 0 0 0 0 0 0 0 0 0 0 0 0 -0 0 -0 -0 -0 -0 -0 -0 -0 -0 -0 0 0 0 0 0 0 0 0 0 0 0 0 0 0 0 0 0 0 0 0
0 0 0 0 0 0 0 0 0 0 0 0 0 0 0 0 0 0 0 0 -0 -0 -0 -0 -0 -0 -0 -0 0 0 0 0 0 0 0 0 0 0 0 0 0 0 0 0 0 0 0 0 0
0 0 0 0 0 0 0 0 0 0 0 0 0 0 0 0 0 0 0 0 0 0 0 -0 -0 -0 -0 -0 0 0 0 0 0 0 0 0 0 0 0 0 0 0 0 0 0 0 0 0 0
0 0 0 0 0 0 0 0 0 0 0 0 0 0 0 0 0 0 0 0 0 0 0 -0 -0 -0 -0 -0 0 0 0 0 0 0 0 0 0 0 0 0 0 0 0 0 0 0 0 0 0
0 0 0 0 0 0 0 0 0 0 0 0 0 0 0 0 0 0 0 0 0 0 0 0 0 -0 -0 -0 0 0 0 0 0 0 0 0 0 0 0 0 0 0 0 0 0 0 0 0 0
0 0 0 0 0 0 0 0 0 0 0 0 0 0 0 0 0 0 0 0 0 0 0 0 0 0 0 0 0 0 0 0 0 0 0 0 0 0 0 0 0 0 0 0 0 0 0 0 0
0 0 0 0 0 0 0 0 0 0 0 0 0 0 0 0 0 0 0 0 0 0 0 0 0 0 0 0 0 0 0 0 0 0 0 0 0 0 0 0 0 0 0 0 0 0 0 0 0
0 0 0 0 0 0 0 0 0 0 0 0 0 0 0 0 0 0 0 0 0 0 0 0 0 0 0 0 0 0 0 0 0 0 0 0 0 0 0 0 0 0 0 0 0 0 0 0 0
0 0 0 0 0 0 0 0 0 0 0 0 0 0 0 0 0 0 0 0 0 0 0 0 0 0 0 0 0 0 0 0 0 0 0 0 0 0 0 0 0 0 0 0 0 0 0 0 0
0 0 0 0 0 0 0 0 0 0 0 0 0 0 0 0 0 0 0 0 0 0 0 0 0 0 0 0 0 0 0 0 0 0 0 0 0 0 0 0 0 0 0 0 0 0 0 0 0
0 0 0 0 0 0 0 0 0 0 0 0 0 0 0 0 0 0 0 0 0 0 0 0 0 0 0 0 0 0 0 0 0 0 0 0 0 0 0 0 0 0 0 0 0 0 0 0 0
0 0 0 0 0 0 0 0 0 0 0 0 0 0 0 0 0 0 0 0 0 0 0 0 0 0 0 0 0 0 0 0 0 0 0 0 0 0 0 0 0 0 0 0 0 0 0 0 0
0 0 0 0 0 0 0 0 0 0 0 0 0 0 0 0 0 0 0 0 0 0 0 0 0 0 0 0 0 0 0 0 0 0 0 0 0 0 0 0 0 0 0 0 0 0 0 0 0
0 0 0 0 0 0 0 0 0 0 0 0 0 0 0 0 0 0 0 0 0 0 0 0 0 0 0 0 0 0 0 0 0 0 0 0 0 0 0 0 0 0 0 0 0 0 0 0 0
0 0 0 0 0 0 0 0 0 0 0 0 0 0 0 0 0 0 0 0 0 0 0 0 0 0 0 0 0 0 0 0 0 0 0 0 0 0 0 0 0 0 0 0 0 0 0 0 0
0 0 0 0 0 0 0 0 0 0 0 0 0 0 0 0 0 0 0 0 0 0 0 0 0 0 0 0 0 0 0 0 0 0 0 0 0 0 0 0 0 0 0 0 0 0 0 0 0
0 0 0 0 0 0 0 0 0 0 0 0 0 0 0 0 0 0 0 0 0 0 0 0 0 0 0 0 0 0 0 0 0 0 0 0 0 0 0 0 0 0 0 0 0 0 0 0 0
0 0 0 0 0 0 0 0 0 0 0 0 0 0 0 0 0 0 0 0 0 0 0 0 0 0 0 0 0 0 0 0 0 0 0 0 0 0 0 0 0 0 0 0 0 0 0 0 0
0 0 0 0 0 0 0 0 0 0 0 0 0 0 0 0 0 0 0 0 0 0 0 0 0 0 0 0 0 0 0 0 0 0 0 0 0 0 0 0 0 0 0 0 0 0 0 0 0
0 0 0 0 0 0 0 0 0 0 0 0 0 0 0 0 0 0 0 0 0 0 0 0 0 0 0 0 0 0 0 0 0 0 0 0 0 0 0 0 0 0 0 0 0 0 0 0 0
0 0 0 0 0 0 0 0 0 0 0 0 0 0 0 0 0 0 0 0 0 0 0 0 0 0 0 0 0 0 0 0 0 0 0 0 0 0 0 0 0 0 0 0 0 0 0 0 -0
0 0 0 0 0 0 0 0 0 0 0 0 0 0 0 0 0 0 0 0 0 0 0 0 0 0 0 0 0 0 0 0 0 0 0 0 0 0 0 0 0 0 0 0 0 0 0 -0 -0
0 0 0 0 0 0 0 0 -0 0 0 0 0 0 0 0 0 0 0 0 0 0 0 0 0 0 0 0 0 0 0 0 0 0 0 0 0 0 0 0 0 0 0 0 0 0 0 0 -0
0 0 -0 0 0 0 0 0 0 0 0 0 0 0 0 0 0 0 0 0 0 0 0 0 0 0 0 0 0 0 0 0 0 0 0 0 0 0 0 0 0 0 0 0 0 0 0 0 0
0 0 0 0 -0 -0 0 0 0 0 0 0 0 0 0 0 0 0 0 0 0 0 0 0 0 0 0 0 0 0 0 0 0 0 0 0 0 0 0 0 0 0 0 0 0 0 0 0 0
0 0 0 0 0 0 0 0 0 0 0 0 0 0 0 0 0 0 0 0 0 0 0 0 0 0 0 0 0 0 0 0 0 0 0 0 0 0 0 0 0 0 0 0 0 0 0 0 0
0 0 0 0 0 0 0 0 0 0 0 0 0 0 0 0 0 0 0 0 0 0 0 0 0 0 0 0 0 0 0 0 0 0 0 0 0 0 0 0 0 0 0 0 0 0 0 0 0
0 0 0 0 0 0 0 0 0 0 0 0 0 0 0 0 0 0 0 0 0 0 0 0 0 0 0 0 0 0 0 0 0 0 0 0 0 0 0 0 0 0 0 0 0 0 0 0 0
Wind_Speed_500mb
28 26 20 12 4 4 5 9 3 4 4 3 12 10 8 8 5 6 36 27 29 23 25 21 16 12 9 7 7 7 7 9 10 10 12 12 12 11 10 8 7 10 10 10 9 10 12 12 9
33 28 22 7 7 6 6 4 11 7 12 24 22 18 7 5 13 26 33 35 28 24 23 18 14 10 8 5 3 4 6 8 8 8 9 10 10 11 12 12 11 11 10 11 11 13 14 13 13
37 33 17 7 6 11 7 9 7 11 25 12 10 7 9 12 23 39 36 38 32 25 22 18 13 9 6 4 2 3 4 5 7 8 9 9 11 12 14 14 13 12 11 10 14 16 17 18 16
35 18 8 6 11 7 6 3 10 25 5 10 17 13 12 16 32 29 39 38 31 25 20 15 12 7 4 3 1 2 3 4 7 9 11 11 12 14 15 17 16 16 14 14 14 17 18 19 19
43 14 5 7 9 6 6 4 25 14 12 13 13 11 11 31 25 39 37 35 29 27 21 13 8 3 3 1 2 6 9 11 13 15 15 16 18 19 20 21 22 21 21 20 21 22 22 22 24
15 10 6 9 8 6 5 10 18 8 10 19 12 17 14 27 32 39 36 33 29 26 20 14 9 5 3 4 8 12 14 15 16 18 18 20 22 24 25 27 28 27 27 27 28 27 27 25 25
14 7 10 14 10 5 6 18 15 13 11 10 23 10 14 35 41 39 35 30 29 28 19 15 12 7 7 9 11 13 15 16 19 20 22 24 24 26 28 29 31 31 32 31 31 32 32 33 34
13 9 10 5 11 10 12 11 12 12 7 26 21 10 13 46 44 40 35 33 29 25 20 13 12 10 10 13 15 16 17 20 23 24 25 27 28 29 31 33 34 35 36 37 37 38 42 43 42
12 8 8 14 14 9 17 7 9 11 23 14 19 12 18 50 46 44 40 37 30 24 20 14 12 12 14 15 16 18 20 22 25 27 29 31 32 34 36 37 38 39 40 41 43 44 46 47 47
7 7 16 11 7 8 19 10 20 11 14 5 16 20 34 51 49 45 41 36 30 23 18 15 13 15 15 16 19 21 23 25 27 30 32 34 37 39 40 42 43 44 46 47 49 51 52 53 53
6 9 12 9 7 8 17 13 11 23 3 12 19 30 48 56 52 44 36 27 22 20 17 16 14 14 16 18 21 23 25 26 29 33 37 40 43 44 45 45 46 47 49 50 52 53 54 55 55
12 9 10 10 10 9 14 18 11 5 5 11 12 27 56 59 50 41 33 26 22 19 17 16 14 15 17 19 22 24 25 28 32 36 39 39 38 38 39 40 40 40 41 42 43 45 47 49 52
9 8 14 19 19 13 20 12 10 6 4 11 20 34 52 46 41 35 28 26 22 18 18 17 15 17 18 20 22 25 27 31 34 35 35 36 38 39 39 40 41 42 42 44 43 42 41 40 40
14 27 21 20 17 10 12 9 9 2 9 21 27 37 40 37 34 32 31 26 22 19 19 16 17 19 19 20 23 25 30 32 31 30 31 34 36 38 41 42 43 44 43 41 40 40 39 36 36
23 14 10 22 11 6 10 8 5 4 13 24 29 31 32 30 31 30 25 23 20 19 20 18 18 19 20 21 22 28 29 26 25 27 29 33 37 39 41 41 41 41 39 38 38 35 34 33 33
8 9 10 8 15 5 4 7 5 5 13 23 26 27 27 27 24 23 24 23 23 22 22 21 21 21 20 19 25 29 23 22 23 27 32 37 39 40 41 42 42 39 38 37 36 34 30 29 30
13 10 10 5 11 4 6 5 3 0 15 19 23 23 23 24 24 23 22 26 27 27 26 24 23 21 19 19 28 20 18 19 23 28 32 37 39 40 41 42 42 40 37 36 34 29 29 26 25
11 15 8 9 8 7 5 3 4 4 10 22 24 25 26 25 23 22 28 32 32 32 31 29 26 22 18 21 24 16 15 18 24 30 34 36 39 40 40 42 42 40 36 32 29 27 20 23 28
14 12 14 3 6 2 6 7 14 13 15 18 25 26 28 31 30 29 28 28 30 33 34 32 28 22 18 23 18 15 14 18 26 32 34 37 39 41 41 41 42 39 36 31 27 26 23 15 23
15 17 7 2 8 3 9 13 8 5 7 10 16 20 23 28 34 36 39 38 35 33 34 34 28 22 20 25 18 16 14 15 24 31 35 37 37 39 40 39 37 36 36 32 25 22 24 22 22
10 12 7 5 3 7 6 11 4 1 2 4 7 4 6 8 10 10 12 24 26 29 31 29 24 23 22 25 19 18 17 19 26 32 36 39 39 39 38 39 38 38 39 39 31 21 16 20 17
8 5 7 9 6 3 9 6 7 5 5 5 16 13 11 10 11 12 9 4 15 21 24 25 24 23 24 23 20 22 23 28 33 37 40 42 43 40 37 38 38 35 36 37 38 23 17 14 16
7 3 7 5 10 7 15 7 10 6 4 4 8 11 10 11 12 12 13 11 6 5 13 17 19 20 22 19 22 25 30 33 39 41 43 43 43 42 39 37 37 38 37 39 39 22 17 16 18
11 8 12 8 6 5 7 5 9 6 6 5 3 9 4 8 10 11 11 9 7 4 4 9 13 11 15 19 24 30 36 38 44 45 46 43 42 40 37 36 38 36 36 36 37 26 18 19 20
7 9 6 7 7 7 3 3 15 3 1 2 8 8 5 7 9 11 8 7 7 5 2 2 6 7 15 21 26 32 38 43 47 46 44 44 43 40 37 36 37 34 36 33 34 33 23 18 19
7 5 9 9 4 7 6 10 9 5 3 3 3 3 6 6 7 10 11 9 6 4 5 8 11 10 15 21 26 30 33 37 40 40 41 42 42 40 37 37 39 35 36 33 31 30 28 24 18
1 7 7 14 3 4 4 12 12 9 10 2 4 8 11 13 13 13 12 9 6 3 6 9 11 12 13 16 20 24 27 31 33 34 35 36 37 37 38 38 39 38 38 35 33 30 27 28 23
6 10 7 5 3 6 8 9 10 4 11 8 7 11 12 10 7 6 4 4 6 4 2 3 5 9 12 16 21 25 29 31 33 35 34 35 35 35 37 37 38 39 39 38 37 33 30 30 27
5 4 9 6 5 7 3 11 11 10 12 14 14 10 7 6 5 3 4 4 5 3 1 3 9 16 22 28 31 35 37 39 41 43 42 42 41 41 41 41 41 42 41 42 43 39 36 35 33
3 4 6 7 5 3 3 13 3 10 10 15 9 5 3 2 3 4 5 8 7 5 6 12 18 23 29 35 41 44 44 45 47 48 48 49 48 48 48 47 48 47 46 44 46 46 42 41 39
Wind_Direction_500mb
207 191 178 174 119 61 197 241 282 162 222 196 155 155 167 50 125 133 140 148 150 147 145 143 143 136 129 117 93 73 62 56 55 53 48 41 35 32 24 6 336 321 336 326 315 342 353 352 343
192 184 165 146 118 156 227 234 229 189 147 120 115 109 72 90 103 141 143 143 138 134 133 130 135 134 132 127 97 62 41 31 28 19 13 10 8 7 4 359 351 338 328 317 316 309 321 332 333
182 173 156 126 135 189 203 196 206 134 137 142 116 104 104 119 134 145 150 146 139 133 125 121 130 128 136 136 98 29 22 7 345 345 339 342 338 339 340 335 332 334 331 312 307 306 306 308 313
167 160 95 139 178 235 208 147 174 147 169 153 142 109 121 142 147 148 148 145 144 141 133 135 130 120 134 136 86 344 329 325 319 325 326 329 319 321 310 314 314 309 308 308 302 296 299 300 301
161 145 115 127 191 250 240 291 168 158 141 139 152 140 124 149 155 152 152 151 153 151 148 151 152 164 197 235 317 318 316 308 303 303 303 301 297 296 302 302 305 305 303 298 293 292 292 294 294
133 137 139 165 194 237 232 191 163 143 152 149 120 125 145 158 159 155 156 160 164 171 166 166 190 201 234 291 302 306 305 304 305 307 308 305 302 298 296 298 298 296 296 294 291 293 288 287 288
129 107 154 151 185 184 206 163 174 153 151 171 148 116 155 158 164 162 165 170 170 176 180 189 204 236 268 288 297 301 303 307 308 308 306 305 304 302 299 298 296 295 293 290 288 285 285 288 288
147 93 128 191 170 195 161 136 159 167 164 146 160 169 174 170 167 169 172 176 175 178 188 201 218 244 271 288 296 301 303 305 305 306 306 306 306 305 303 301 298 294 291 287 283 281 282 282 282
157 86 156 178 154 160 158 129 147 149 144 172 176 173 174 170 167 172 177 181 183 188 197 212 230 254 278 289 296 299 301 304 307 309 311 310 308 306 304 300 297 293 289 286 283 281 278 277 276
114 113 180 172 172 161 151 146 149 158 141 186 182 179 170 174 170 176 181 185 186 192 206 224 246 271 282 293 299 301 306 310 312 313 312 310 306 302 299 296 294 292 289 288 286 284 282 281 279
108 149 171 142 174 167 135 125 142 140 196 208 205 185 174 177 176 181 187 190 191 199 213 236 254 268 287 299 302 306 311 313 313 312 310 308 307 306 305 303 300 296 293 291 289 287 285 283 280
93 89 125 120 157 161 134 131 112 151 172 203 213 187 172 179 184 187 193 195 199 209 229 243 257 280 295 301 303 308 311 315 314 312 311 312 313 313 312 311 308 305 303 300 298 294 292 288 284
95 142 88 106 122 113 131 110 138 106 128 152 159 165 171 180 186 191 197 207 213 224 236 250 274 289 299 305 310 313 314 313 314 316 319 320 320 319 317 316 314 311 308 306 305 304 303 302 296
134 113 104 89 100 87 120 107 135 114 142 149 156 161 174 184 192 199 207 215 227 235 245 261 280 295 305 307 308 310 312 316 319 323 323 323 322 321 320 320 318 316 314 313 312 312 311 310 308
124 87 76 31 16 65 128 68 98 150 164 160 162 170 181 189 204 214 222 230 241 243 251 265 283 290 298 304 313 316 317 318 323 326 329 330 330 330 328 327 324 321 318 316 315 313 313 314 315
80 53 92 350 7 21 140 226 196 162 177 175 176 184 197 209 221 226 230 236 244 250 256 261 276 286 297 301 315 317 318 323 328 334 337 338 337 336 335 334 331 329 325 322 322 320 318 319 320
14 115 97 93 29 301 58 190 172 339 206 200 201 206 216 221 229 236 244 248 249 252 251 259 268 277 289 304 320 315 316 324 332 336 338 339 340 339 338 337 334 329 325 323 322 322 322 327 321
155 112 71 118 337 23 61 214 291 296 227 228 229 230 239 247 244 252 250 250 251 251 249 252 259 267 285 307 314 304 313 326 334 336 337 339 341 341 341 342 342 334 325 321 314 313 323 326 317
119 100 107 67 351 57 23 285 264 273 252 242 239 245 252 257 262 257 253 250 251 250 248 249 252 260 281 305 295 297 311 332 337 335 334 335 339 342 342 344 349 343 333 326 320 321 329 316 314
66 104 69 71 17 100 22 283 281 271 255 254 268 267 272 276 276 271 260 255 250 247 246 245 246 255 275 303 286 289 304 332 344 345 340 334 333 335 340 340 342 348 345 337 322 318 331 333 346
35 99 140 126 83 68 330 303 352 163 95 66 17 17 37 17 5 337 267 239 240 241 242 239 239 250 272 293 277 284 292 309 328 336 338 337 329 327 333 336 337 339 340 342 332 310 314 324 345
70 330 93 96 85 162 5 259 297 359 330 63 48 69 75 62 39 28 21 288 243 238 233 229 235 251 276 281 272 281 293 306 316 322 325 327 328 322 322 328 331 331 333 336 336 314 295 297 316
142 70 80 87 87 83 356 70 263 349 159 163 39 46 64 54 39 37 42 45 62 173 199 213 234 263 282 280 285 292 298 308 309 312 315 317 318 319 313 317 324 331 330 331 335 319 300 291 289
150 80 47 53 67 40 324 102 284 193 191 144 332 7 44 65 51 46 51 62 74 110 205 249 271 285 289 291 294 297 300 304 305 309 309 309 308 312 307 308 314 324 325 326 332 324 298 292 288
73 62 18 13 10 214 330 5 244 252 229 237 299 337 85 86 74 57 62 75 79 86 85 292 289 299 296 298 299 299 301 303 305 309 309 307 307 308 305 301 302 310 316 321 326 329 316 297 287
56 113 141 187 184 267 341 239 256 229 287 275 331 91 115 102 82 65 77 78 69 34 327 309 304 305 294 292 294 300 306 308 308 309 306 305 305 303 303 296 295 299 303 314 317 321 321 312 290
191 55 152 104 72 31 265 286 299 281 262 244 100 120 105 111 114 99 82 70 48 340 293 288 291 297 302 307 310 312 314 316 315 315 314 309 306 300 298 297 293 292 294 300 307 309 308 304 302
49 137 72 7 126 282 294 275 240 276 187 181 151 124 115 108 111 89 61 34 17 26 18 348 332 323 319 317 315 315 316 318 318 316 313 309 306 304 301 299 295 289 287 288 291 297 297 292 291
26 33 48 117 82 175 313 269 207 223 195 178 176 157 134 98 61 222 226 208 200 208 167 311 313 309 303 303 303 304 305 306 306 305 305 305 304 304 303 300 298 294 290 285 282 284 287 287 284
129 149 143 119 236 63 122 273 247 234 219 180 168 182 201 321 320 271 225 205 209 228 274 301 315 313 308 305 304 304 304 303 301 300 298 296 297 296 295 297 297 295 293 287 281 278 279 281 282
Wind_Speed_850mb
28 26 20 12 4 4 5 9 3 4 4 3 12 10 8 8 5 6 36 27 29 23 25 21 16 12 9 7 7 7 7 9 10 10 12 12 12 11 10 8 7 10 10 10 9 10 12 12 9
33 28 22 7 7 6 6 4 11 7 12 24 22 18 7 5 13 26 33 35 28 24 23 18 14 10 8 5 3 4 6 8 8 8 9 10 10 11 12 12 11 11 10 11 11 13 14 13 13
37 33 17 7 6 11 7 9 7 11 25 12 10 7 9 12 23 39 36 38 32 25 22 18 13 9 6 4 2 3 4 5 7 8 9 9 11 12 14 14 13 12 11 10 14 16 17 18 16
35 18 8 6 11 7 6 3 10 25 5 10 17 13 12 16 32 29 39 38 31 25 20 15 12 7 4 3 1 2 3 4 7 9 11 11 12 14 15 17 16 16 14 14 14 17 18 19 19
43 14 5 7 9 6 6 4 25 14 12 13 13 11 11 31 25 39 37 35 29 27 21 13 8 3 3 1 2 6 9 11 13 15 15 16 18 19 20 21 22 21 21 20 21 22 22 22 24
15 10 6 9 8 6 5 10 18 8 10 19 12 17 14 27 32 39 36 33 29 26 20 14 9 5 3 4 8 12 14 15 16 18 18 20 22 24 25 27 28 27 27 27 28 27 27 25 25
14 7 10 14 10 5 6 18 15 13 11 10 23 10 14 35 41 39 35 30 29 28 19 15 12 7 7 9 11 13 15 16 19 20 22 24 24 26 28 29 31 31 32 31 31 32 32 33 34
13 9 10 5 11 10 12 11 12 12 7 26 21 10 13 46 44 40 35 33 29 25 20 13 12 10 10 13 15 16 17 20 23 24 25 27 28 29 31 33 34 35 36 37 37 38 42 43 42
12 8 8 14 14 9 17 7 9 11 23 14 19 12 18 50 46 44 40 37 30 24 20 14 12 12 14 15 16 18 20 22 25 27 29 31 32 34 36 37 38 39 40 41 43 44 46 47 47
7 7 16 11 7 8 19 10 20 11 14 5 16 20 34 51 49 45 41 36 30 23 18 15 13 15 15 16 19 21 23 25 27 30 32 34 37 39 40 42 43 44 46 47 49 51 52 53 53
6 9 12 9 7 8 17 13 11 23 3 12 19 30 48 56 52 44 36 27 22 20 17 16 14 14 16 18 21 23 25 26 29 33 37 40 43 44 45 45 46 47 49 50 52 53 54 55 55
12 9 10 10 10 9 14 18 11 5 5 11 12 27 56 59 50 41 33 26 22 19 17 16 14 15 17 19 22 24 25 28 32 36 39 39 38 38 39 40 40 40 41 42 43 45 47 49 52
9 8 14 19 19 13 20 12 10 6 4 11 20 34 52 46 41 35 28 26 22 18 18 17 15 17 18 20 22 25 27 31 34 35 35 36 38 39 39 40 41 42 42 44 43 42 41 40 40
14 27 21 20 17 10 12 9 9 2 9 21 27 37 40 37 34 32 31 26 22 19 19 16 17 19 19 20 23 25 30 32 31 30 31 34 36 38 41 42 43 44 43 41 40 40 39 36 36
23 14 10 22 11 6 10 8 5 4 13 24 29 31 32 30 31 30 25 23 20 19 20 18 18 19 20 21 22 28 29 26 25 27 29 33 37 39 41 41 41 41 39 38 38 35 34 33 33
8 9 10 8 15 5 4 7 5 5 13 23 26 27 27 27 24 23 24 23 23 22 22 21 21 21 20 19 25 29 23 22 23 27 32 37 39 40 41 42 42 39 38 37 36 34 30 29 30
13 10 10 5 11 4 6 5 3 0 15 19 23 23 23 24 24 23 22 26 27 27 26 24 23 21 19 19 28 20 18 19 23 28 32 37 39 40 41 42 42 40 37 36 34 29 29 26 25
11 15 8 9 8 7 5 3 4 4 10 22 24 25 26 25 23 22 28 32 32 32 31 29 26 22 18 21 24 16 15 18 24 30 34 36 39 40 40 42 42 40 36 32 29 27 20 23 28
14 12 14 3 6 2 6 7 14 13 15 18 25 26 28 31 30 29 28 28 30 33 34 32 28 22 18 23 18 15 14 18 26 32 34 37 39 41 41 41 42 39 36 31 27 26 23 15 23
15 17 7 2 8 3 9 13 8 5 7 10 16 20 23 28 34 36 39 38 35 33 34 34 28 22 20 25 18 16 14 15 24 31 35 37 37 39 40 39 37 36 36 32 25 22 24 22 22
10 12 7 5 3 7 6 11 4 1 2 4 7 4 6 8 10 10 12 24 26 29 31 29 24 23 22 25 19 18 17 19 26 32 36 39 39 39 38 39 38 38 39 39 31 21 16 20 17
8 5 7 9 6 3 9 6 7 5 5 5 16 13 11 10 11 12 9 4 15 21 24 25 24 23 24 23 20 22 23 28 33 37 40 42 43 40 37 38 38 35 36 37 38 23 17 14 16
7 3 7 5 10 7 15 7 10 6 4 4 8 11 10 11 12 12 13 11 6 5 13 17 19 20 22 19 22 25 30 33 39 41 43 43 43 42 39 37 37 38 37 39 39 22 17 16 18
11 8 12 8 6 5 7 5 9 6 6 5 3 9 4 8 10 11 11 9 7 4 4 9 13 11 15 19 24 30 36 38 44 45 46 43 42 40 37 36 38 36 36 36 37 26 18 19 20
7 9 6 7 7 7 3 3 15 3 1 2 8 8 5 7 9 11 8 7 7 5 2 2 6 7 15 21 26 32 38 43 47 46 44 44 43 40 37 36 37 34 36 33 34 33 23 18 19
7 5 9 9 4 7 6 10 9 5 3 3 3 3 6 6 7 10 11 9 6 4 5 8 11 10 15 21 26 30 33 37 40 40 41 42 42 40 37 37 39 35 36 33 31 30 28 24 18
1 7 7 14 3 4 4 12 12 9 10 2 4 8 11 13 13 13 12 9 6 3 6 9 11 12 13 16 20 24 27 31 33 34 35 36 37 37 38 38 39 38 38 35 33 30 27 28 23
6 10 7 5 3 6 8 9 10 4 11 8 7 11 12 10 7 6 4 4 6 4 2 3 5 9 12 16 21 25 29 31 33 35 34 35 35 35 37 37 38 39 39 38 37 33 30 30 27
5 4 9 6 5 7 3 11 11 10 12 14 14 10 7 6 5 3 4 4 5 3 1 3 9 16 22 28 31 35 37 39 41 43 42 42 41 41 41 41 41 42 41 42 43 39 36 35 33
3 4 6 7 5 3 3 13 3 10 10 15 9 5 3 2 3 4 5 8 7 5 6 12 18 23 29 35 41 44 44 45 47 48 48 49 48 48 48 47 48 47 46 44 46 46 42 41 39
Wind_Direction_850mb
207 191 178 174 119 61 197 241 282 162 222 196 155 155 167 50 125 133 140 148 150 147 145 143 143 136 129 117 93 73 62 56 55 53 48 41 35 32 24 6 336 321 336 326 315 342 353 352 343
192 184 165 146 118 156 227 234 229 189 147 120 115 109 72 90 103 141 143 143 138 134 133 130 135 134 132 127 97 62 41 31 28 19 13 10 8 7 4 359 351 338 328 317 316 309 321 332 333
182 173 156 126 135 189 203 196 206 134 137 142 116 104 104 119 134 145 150 146 139 133 125 121 130 128 136 136 98 29 22 7 345 345 339 342 338 339 340 335 332 334 331 312 307 306 306 308 313
167 160 95 139 178 235 208 147 174 147 169 153 142 109 121 142 147 148 148 145 144 141 133 135 130 120 134 136 86 344 329 325 319 325 326 329 319 321 310 314 314 309 308 308 302 296 299 300 301
161 145 115 127 191 250 240 291 168 158 141 139 152 140 124 149 155 152 152 151 153 151 148 151 152 164 197 235 317 318 316 308 303 303 303 301 297 296 302 302 305 305 303 298 293 292 292 294 294
133 137 139 165 194 237 232 191 163 143 152 149 120 125 145 158 159 155 156 160 164 171 166 166 190 201 234 291 302 306 305 304 305 307 308 305 302 298 296 298 298 296 296 294 291 293 288 287 288
129 107 154 151 185 184 206 163 174 153 151 171 148 116 155 158 164 162 165 170 170 176 180 189 204 236 268 288 297 301 303 307 308 308 306 305 304 302 299 298 296 295 293 290 288 285 285 288 288
147 93 128 191 170 195 161 136 159 167 164 146 160 169 174 170 167 169 172 176 175 178 188 201 218 244 271 288 296 301 303 305 305 306 306 306 306 305 303 301 298 294 291 287 283 281 282 282 282
157 86 156 178 154 160 158 129 147 149 144 172 176 173 174 170 167 172 177 181 183 188 197 212 230 254 278 289 296 299 301 304 307 309 311 310 308 306 304 300 297 293 289 286 283 281 278 277 276
114 113 180 172 172 161 151 146 149 158 141 186 182 179 170 174 170 176 181 185 186 192 206 224 246 271 282 293 299 301 306 310 312 313 312 310 306 302 299 296 294 292 289 288 286 284 282 281 279
108 149 171 142 174 167 135 125 142 140 196 208 205 185 174 177 176 181 187 190 191 199 213 236 254 268 287 299 302 306 311 313 313 312 310 308 307 306 305 303 300 296 293 291 289 287 285 283 280
93 89 125 120 157 161 134 131 112 151 172 203 213 187 172 179 184 187 193 195 199 209 229 243 257 280 295 301 303 308 311 315 314 312 311 312 313 313 312 311 308 305 303 300 298 294 292 288 284
95 142 88 106 122 113 131 110 138 106 128 152 159 165 171 180 186 191 197 207 213 224 236 250 274 289 299 305 310 313 314 313 314 316 319 320 320 319 317 316 314 311 308 306 305 304 303 302 296
134 113 104 89 100 87 120 107 135 114 142 149 156 161 174 184 192 199 207 215 227 235 245 261 280 295 305 307 308 310 312 316 319 323 323 323 322 321 320 320 318 316 314 313 312 312 311 310 308
124 87 76 31 16 65 128 68 98 150 164 160 162 170 181 189 204 214 222 230 241 243 251 265 283 290 298 304 313 316 317 318 323 326 329 330 330 330 328 327 324 321 318 316 315 313 313 314 315
80 53 92 350 7 21 140 226 196 162 177 175 176 184 197 209 221 226 230 236 244 250 256 261 276 286 297 301 315 317 318 323 328 334 337 338 337 336 335 334 331 329 325 322 322 320 318 319 320
14 115 97 93 29 301 58 190 172 339 206 200 201 206 216 221 229 236 244 248 249 252 251 259 268 277 289 304 320 315 316 324 332 336 338 339 340 339 338 337 334 329 325 323 322 322 322 327 321
155 112 71 118 337 23 61 214 291 296 227 228 229 230 239 247 244 252 250 250 251 251 249 252 259 267 285 307 314 304 313 326 334 336 337 339 341 341 341 342 342 334 325 321 314 313 323 326 317
119 100 107 67 351 57 23 285 264 273 252 242 239 245 252 257 262 257 253 250 251 250 248 249 252 260 281 305 295 297 311 332 337 335 334 335 339 342 342 344 349 343 333 326 320 321 329 316 314
66 104 69 71 17 100 22 283 281 271 255 254 268 267 272 276 276 271 260 255 250 247 246 245 246 255 275 303 286 289 304 332 344 345 340 334 333 335 340 340 342 348 345 337 322 318 331 333 346
35 99 140 126 83 68 330 303 352 163 95 66 17 17 37 17 5 337 267 239 240 241 242 239 239 250 272 293 277 284 292 309 328 336 338 337 329 327 333 336 337 339 340 342 332 310 314 324 345
70 330 93 96 85 162 5 259 297 359 330 63 48 69 75 62 39 28 21 288 243 238 233 229 235 251 276 281 272 281 293 306 316 322 325 327 328 322 322 328 331 331 333 336 336 314 295 297 316
142 70 80 87 87 83 356 70 263 349 159 163 39 46 64 54 39 37 42 45 62 173 199 213 234 263 282 280 285 292 298 308 309 312 315 317 318 319 313 317 324 331 330 331 335 319 300 291 289
150 80 47 53 67 40 324 102 284 193 191 144 332 7 44 65 51 46 51 62 74 110 205 249 271 285 289 291 294 297 300 304 305 309 309 309 308 312 307 308 314 324 325 326 332 324 298 292 288
73 62 18 13 10 214 330 5 244 252 229 237 299 337 85 86 74 57 62 75 79 86 85 292 289 299 296 298 299 299 301 303 305 309 309 307 307 308 305 301 302 310 316 321 326 329 316 297 287
56 113 141 187 184 267 341 239 256 229 287 275 331 91 115 102 82 65 77 78 69 34 327 309 304 305 294 292 294 300 306 308 308 309 306 305 305 303 303 296 295 299 303 314 317 321 321 312 290
191 55 152 104 72 31 265 286 299 281 262 244 100 120 105 111 114 99 82 70 48 340 293 288 291 297 302 307 310 312 314 316 315 315 314 309 306 300 298 297 293 292 294 300 307 309 308 304 302
49 137 72 7 126 282 294 275 240 276 187 181 151 124 115 108 111 89 61 34 17 26 18 348 332 323 319 317 315 315 316 318 318 316 313 309 306 304 301 299 295 289 287 288 291 297 297 292 291
26 33 48 117 82 175 313 269 207 223 195 178 176 157 134 98 61 222 226 208 200 208 167 311 313 309 303 303 303 304 305 306 306 305 305 305 304 304 303 300 298 294 290 285 282 284 287 287 284
129 149 143 119 236 63 122 273 247 234 219 180 168 182 201 321 320 271 225 205 209 228 274 301 315 313 308 305 304 304 304 303 301 300 298 296 297 296 295 297 297 295 293 287 281 278 279 281 282